Simultaneous Nadir Overpasses (SNOs) Predictions

Prediction of SNOs between GOES-14 and NOAA-20 Satellite Orbit:

Table of predicted SNOs for the next 14.0 days since TLE Epoch: 11/19/2022
Index Date Time (GOES-14) GOES-14 Lat,Lon NOAA-20 Lat,Lon Distance(km) Time Diff (sec)
1 11/19/2022 20:26:52 -0.02,-104.07 -0.38,-105.79 195.15 80
2 11/20/2022 20:10:47 -0.03,-104.08 0.62,-101.25 322.81 80
3 11/22/2022 08:32:35 0.01,-104.35 0.47,-106.54 249.14 80
4 11/23/2022 08:11:08 0.03,-104.33 -0.48,-101.99 266.44 80
5 11/24/2022 20:33:03 0.00,-104.04 -0.75,-107.28 369.51 80
6 11/25/2022 20:16:57 -0.01,-104.04 0.26,-102.74 147.80 80
7 11/27/2022 08:38:46 -0.01,-104.33 0.83,-108.03 421.32 80
8 11/28/2022 08:17:20 0.00,-104.31 -0.18,-103.49 93.92 80
9 11/30/2022 20:20:29 0.01,-104.00 -0.03,-104.25 28.08 80
10 12/01/2022 20:04:23 0.00,-104.00 0.99, -99.71 489.57 80
